Location: *
(60.1759°S, 155.0663°W)
Time: 03:00:08
(UTC+00:00)

COSMOS 2455 - Pass Details

Date: 17 September 2019
Orbit: 900 x 910 km, 67.1° (Epoch: 16 October)

Event Time Altitude Azimuth Distance (km) Brightness Sun altitude
Rises 15:29:11 0° 232° (SW) 3,560 5.5 -7.6°
Reaches altitude 10° 15:31:43 10° 231° (SW) 2,616 4.9 -7.2°
Maximum altitude 15:37:49 85° 143° (SE) 926 3.0 -6.5°
Drops below altitude 10° 15:43:54 10° 52° (NE) 2,602 6.0 -5.7°
Sets 15:46:24 0° 51° (NE) 3,540 6.7 -5.4°
